Toronto, Ontario

6:09 AM EDT on March 25, 2017 (GMT -0400)
Toronto-City Centre

Weather History for CYTZ - January, 2013

Change the Weather History Date:

Sunday, January 13, 2013

  Actual Average Record
Temperature  
Mean Temperature 49 °F -  
Max Temperature 57 °F 29 °F 57 °F (2013)
Min Temperature 41 °F 18 °F -4 °F (1999)
Degree Days  
Heating Degree Days 16    
Moisture  
Dew Point 45 °F    
Average Humidity 96    
Maximum Humidity 100    
Minimum Humidity 82    
Precipitation  
Precipitation 0.94 in 0.07 in - ()
Sea Level Pressure  
Sea Level Pressure 29.81 in    
Wind  
Wind Speed 8 mph ()    
Max Wind Speed 21 mph    
Max Gust Speed 25 mph    
Visibility 3.4 miles    
Events Fog , Rain    
Averages and records for this station are not official NWS values.
T = Trace of Precipitation, MM = Missing Value Source: Averaged Metar Reports

Daily Weather History Graph

Daily Weather History Graph

Search for Another Location

Airport or City:

Trip Planner

Search our weather history database for the weather conditions in past years. The results will help you decide how hot, cold, wet, or windy it might be!

Date:

Astronomy

Jan. 13, 2013 Rise Set
Actual Time 7:48 AM EST 5:04 PM EST
Civil Twilight 7:16 AM EST 5:36 PM EST
Nautical Twilight 6:41 AM EST 6:11 PM EST
Astronomical Twilight 6:06 AM EST 6:46 PM EST
Moon 8:41 AM EST (1/13) 7:47 PM EST (1/13)
Length of Visible Light 10h 19m
Length of Day
9h 15m
Waxing Crescent, 5% of the Moon is Illuminated
Jan 13
Waxing Crescent
Jan 18
First Quarter
Jan 26
Full
Feb 3
Last Quarter
Feb 10
New

Hourly Weather History & Observations

Time (EST) Temp. Windchill Dew Point Humidity Pressure Visibility Wind Dir Wind Speed Gust Speed Precip Events Conditions
12:00 AM 46.4 °F - 46.4 °F 100% 29.95 in 6.0 mi Variable 2.3 mph - N/A   Overcast
12:06 AM 46.4 °F - 44.6 °F 93% 29.95 in 5.0 mi Calm Calm - N/A   Overcast
12:32 AM 44.6 °F - 44.6 °F 100% 29.94 in 2.2 mi Calm Calm - N/A   Overcast
12:39 AM 44.6 °F - 42.8 °F 93% 29.93 in 1.5 mi Calm Calm - N/A   Overcast
12:51 AM 42.8 °F 41.1 °F 41.0 °F 93% 29.93 in 0.8 mi ESE 3.5 mph - N/A   Mostly Cloudy
1:00 AM 44 °F - 43 °F 95% 29.93 in 1 mi East 3.5 mph - -   Mist
1:00 AM 44.6 °F 43.1 °F 42.8 °F 93% 29.93 in 0.6 mi East 3.5 mph - N/A   Overcast
1:06 AM 44.6 °F 42.2 °F 44.6 °F 100% 29.93 in 1.0 mi East 4.6 mph - N/A   Overcast
1:24 AM 42.8 °F 40.1 °F 41.0 °F 93% 29.92 in 0.8 mi ENE 4.6 mph - N/A   Mostly Cloudy
1:45 AM 44.6 °F 41.4 °F 42.8 °F 93% 29.92 in 1.0 mi East 5.8 mph - N/A   Overcast
2:00 AM 44.6 °F 40.2 °F 44.6 °F 100% 29.91 in 1.8 mi East 8.1 mph - N/A   Overcast
2:01 AM 44.6 °F 40.2 °F 44.6 °F 100% 29.91 in 2.0 mi East 8.1 mph - N/A   Overcast
2:09 AM 46.4 °F 42.9 °F 46.4 °F 100% 29.91 in 3.0 mi East 6.9 mph - N/A   Overcast
2:36 AM 46.4 °F 41.1 °F 46.4 °F 100% 29.90 in 2.2 mi East 11.5 mph - N/A   Overcast
2:40 AM 46.4 °F 40.7 °F 44.6 °F 93% 29.90 in 1.8 mi East 12.7 mph - N/A   Overcast
2:54 AM 44.6 °F 39.2 °F 44.6 °F 100% 29.87 in 1.5 mi ENE 10.4 mph - N/A Rain Light Rain
3:00 AM 44.6 °F 39.7 °F 44.6 °F 100% 29.87 in 1.5 mi East 9.2 mph - N/A Rain Light Rain
3:24 AM 44.6 °F 38.4 °F 44.6 °F 100% 29.87 in 1.8 mi East 12.7 mph - N/A Rain Light Rain
3:35 AM 44.6 °F 38.1 °F 42.8 °F 93% 29.86 in 1.2 mi East 13.8 mph - N/A Rain Rain
3:46 AM 44.6 °F 38.1 °F 44.6 °F 100% 29.86 in 1.0 mi East 13.8 mph - N/A Rain Light Rain
4:00 AM 44.6 °F 37.4 °F 44.6 °F 100% 29.87 in 1.0 mi East 16.1 mph - N/A Rain Rain
4:23 AM 44.6 °F 37.8 °F 44.6 °F 100% 29.84 in 2.0 mi ENE 15.0 mph - N/A Rain Light Rain
4:29 AM 44.6 °F 37.4 °F 44.6 °F 100% 29.83 in 3.0 mi NE 16.1 mph - N/A Rain Light Rain
4:42 AM 46.4 °F 40.4 °F 46.4 °F 100% 29.83 in 2.2 mi ENE 13.8 mph - N/A Rain Rain
4:44 AM 46.4 °F 40.4 °F 46.4 °F 100% 29.83 in 1.8 mi ENE 13.8 mph - N/A Rain Rain
5:00 AM 46.4 °F 39.5 °F 46.4 °F 100% 29.82 in 1.8 mi ENE 17.3 mph - N/A Rain Rain
5:37 AM 46.4 °F 39.0 °F 46.4 °F 100% 29.77 in 2.0 mi ENE 19.6 mph - N/A Rain Light Rain
5:42 AM 46.4 °F 38.7 °F 46.4 °F 100% 29.77 in 3.0 mi ENE 20.7 mph - N/A Rain Light Rain
5:50 AM 46.4 °F 39.0 °F 46.4 °F 100% 29.76 in 2.2 mi ENE 19.6 mph 25.3 mph N/A Rain Light Rain
6:00 AM 46.4 °F 39.0 °F 46.4 °F 100% 29.76 in 2.0 mi ENE 19.6 mph - N/A Rain Light Rain
6:55 AM 46.4 °F 39.5 °F 44.6 °F 93% 29.76 in 3.0 mi ENE 17.3 mph 24.2 mph N/A Rain Light Rain
7:00 AM 45 °F - 45 °F 99% 29.77 in 3 mi ENE 18.4 mph - - Rain Light Rain
7:00 AM 44.6 °F 37.4 °F 44.6 °F 100% 29.76 in 3.0 mi East 16.1 mph 23.0 mph N/A Rain Light Rain
7:08 AM 44.6 °F 37.8 °F 44.6 °F 100% 29.77 in 2.5 mi East 15.0 mph 21.9 mph N/A Rain Light Rain
7:38 AM 44.6 °F 38.4 °F 44.6 °F 100% 29.75 in 3.0 mi ENE 12.7 mph - N/A Rain Light Rain
7:44 AM 44.6 °F 37.8 °F 44.6 °F 100% 29.75 in 2.5 mi ENE 15.0 mph - N/A Rain Rain
7:49 AM 44.6 °F 38.1 °F 44.6 °F 100% 29.74 in 2.0 mi ENE 13.8 mph - N/A Rain Light Rain
8:00 AM 46.4 °F 40.1 °F 44.6 °F 93% 29.75 in 2.5 mi ENE 15.0 mph - N/A Rain Light Rain
8:13 AM 46.4 °F 40.1 °F 44.6 °F 93% 29.74 in 3.0 mi ENE 15.0 mph - N/A Rain Light Rain
8:23 AM 44.6 °F 37.8 °F 44.6 °F 100% 29.74 in 2.2 mi ENE 15.0 mph - N/A Rain Light Rain
8:38 AM 46.4 °F 40.7 °F 44.6 °F 93% 29.74 in 1.8 mi ENE 12.7 mph - N/A Rain Light Rain
8:45 AM 46.4 °F 41.9 °F 46.4 °F 100% 29.74 in 0.8 mi East 9.2 mph - N/A Rain Light Rain
8:51 AM 46.4 °F 40.7 °F 44.6 °F 93% 29.74 in 0.5 mi ENE 12.7 mph - N/A Fog , Rain Light Rain
9:00 AM 46.4 °F 41.1 °F 44.6 °F 93% 29.74 in 0.2 mi ENE 11.5 mph - N/A Fog , Rain Light Rain
9:29 AM 46.4 °F 41.9 °F 46.4 °F 100% 29.74 in 0.5 mi ENE 9.2 mph - N/A Fog Fog
9:33 AM 46.4 °F 42.9 °F 44.6 °F 93% 29.74 in 0.4 mi East 6.9 mph - N/A Fog , Rain Light Rain
9:46 AM 46.4 °F 44.3 °F 46.4 °F 100% 29.74 in 0.4 mi East 4.6 mph - N/A Fog Fog
10:00 AM 44.6 °F 40.7 °F 44.6 °F 100% 29.74 in 0.4 mi East 6.9 mph - N/A Fog Fog
10:04 AM 46.4 °F 42.4 °F 44.6 °F 93% 29.74 in 0.2 mi East 8.1 mph - N/A Fog , Rain Light Rain
10:14 AM 46.4 °F 42.4 °F 44.6 °F 93% 29.74 in 0.2 mi ENE 8.1 mph - N/A Fog Fog
11:00 AM 44.6 °F 43.1 °F 44.6 °F 100% 29.76 in 0.5 mi NE 3.5 mph - N/A Fog Fog
11:13 AM 46.4 °F 45.2 °F 46.4 °F 100% 29.75 in 1.0 mi Variable 3.5 mph - N/A   Overcast
11:18 AM 46.4 °F 42.9 °F 44.6 °F 93% 29.74 in 0.8 mi Variable 6.9 mph - N/A   Overcast
11:21 AM 44.6 °F 40.7 °F 44.6 °F 100% 29.74 in 0.4 mi Variable 6.9 mph - N/A Fog Fog
11:27 AM 46.4 °F 43.5 °F 44.6 °F 93% 29.75 in 0.2 mi West 5.8 mph - N/A Fog Fog
11:29 AM 46.4 °F 43.5 °F 46.4 °F 100% 29.75 in 0.2 mi WNW 5.8 mph - N/A Fog Fog
11:30 AM 46.4 °F 43.5 °F 46.4 °F 100% 29.75 in 0.2 mi West 5.8 mph - N/A Fog Fog
11:40 AM 48.2 °F - 48.2 °F 100% 29.75 in 1.0 mi West 5.8 mph - N/A   Overcast
11:48 AM 48.2 °F - 48.2 °F 100% 29.75 in 0.8 mi West 6.9 mph - N/A   Overcast
11:56 AM 48.2 °F - 48.2 °F 100% 29.75 in 1.0 mi West 8.1 mph - N/A   Overcast
11:59 AM 50.0 °F - 48.2 °F 94% 29.75 in 2.0 mi West 8.1 mph - N/A   Overcast
12:00 PM 50.0 °F - 50.0 °F 100% 29.75 in 2.2 mi West 8.1 mph - N/A   Overcast
12:01 PM 50.0 °F - 50.0 °F 100% 29.75 in 3.0 mi West 8.1 mph - N/A   Overcast
12:07 PM 50.0 °F - 50.0 °F 100% 29.75 in 6.0 mi West 8.1 mph - N/A   Overcast
12:37 PM 50.0 °F - 50.0 °F 100% 29.74 in 9.0 mi West 5.8 mph 23.0 mph N/A   Mostly Cloudy
1:00 PM 51 °F - 49 °F 91% 29.75 in 10 mi West 6.9 mph - -   Clear
1:00 PM 50.0 °F - 50.0 °F 100% 29.74 in 9.0 mi WSW 8.1 mph - N/A   Overcast
1:07 PM 50.0 °F - 48.2 °F 94% 29.75 in 9.0 mi WSW 8.1 mph - N/A   Overcast
1:21 PM 50.0 °F - 48.2 °F 94% 29.75 in 9.0 mi WSW 6.9 mph - N/A   Overcast
1:33 PM 50.0 °F - 48.2 °F 94% 29.75 in 8.0 mi WSW 5.8 mph - N/A   Mostly Cloudy
2:00 PM 50.0 °F - 48.2 °F 94% 29.76 in 7.0 mi WSW 4.6 mph - N/A   Mostly Cloudy
3:00 PM 53.6 °F - 51.8 °F 94% 29.80 in 9.0 mi Variable 2.3 mph - N/A   Overcast
3:18 PM 55.4 °F - 51.8 °F 88% 29.81 in 9.0 mi West 13.8 mph - N/A   Overcast
4:00 PM 55.4 °F - 50.0 °F 82% 29.84 in 9.0 mi West 15.0 mph 20.7 mph N/A   Overcast
5:00 PM 51.8 °F - 46.4 °F 82% 29.83 in 9.0 mi West 8.1 mph - N/A   Mostly Cloudy
6:00 PM 46.4 °F 42.4 °F 42.8 °F 87% 29.85 in 9.0 mi SSW 8.1 mph - N/A   Overcast
7:00 PM 50 °F - 47 °F 85% 29.85 in 10 mi West 4.6 mph - -   Overcast
7:00 PM 50.0 °F - 46.4 °F 87% 29.85 in 9.0 mi West 5.8 mph - N/A   Overcast
8:00 PM 51.8 °F - 46.4 °F 82% 29.83 in 9.0 mi NW 11.5 mph - N/A   Overcast
8:30 PM 48.2 °F - 44.6 °F 87% 29.83 in 9.0 mi NW 5.8 mph - N/A Rain Light Rain
8:58 PM 48.2 °F - 44.6 °F 87% 29.83 in 5.0 mi WNW 4.6 mph - N/A Rain Light Rain
9:00 PM 46.4 °F 44.3 °F 44.6 °F 93% 29.83 in 5.0 mi NW 4.6 mph - N/A Rain Light Rain
9:09 PM 46.4 °F 43.5 °F 44.6 °F 93% 29.83 in 4.0 mi SSE 5.8 mph - N/A Rain Light Rain
9:16 PM 46.4 °F 42.4 °F 44.6 °F 93% 29.82 in 4.0 mi SSE 8.1 mph - N/A Rain Light Rain
9:20 PM 46.4 °F 43.5 °F 44.6 °F 93% 29.82 in 4.0 mi SE 5.8 mph - N/A Rain Light Rain
9:39 PM 44.6 °F 41.4 °F 42.8 °F 93% 29.82 in 6.0 mi East 5.8 mph - N/A Rain Light Rain
9:44 PM 44.6 °F 42.2 °F 42.8 °F 93% 29.82 in 6.0 mi East 4.6 mph - N/A   Overcast
9:54 PM 44.6 °F 41.4 °F 42.8 °F 93% 29.81 in 5.0 mi ENE 5.8 mph - N/A   Overcast
9:59 PM 42.8 °F 39.3 °F 42.8 °F 100% 29.81 in 4.0 mi East 5.8 mph - N/A Rain Light Rain
10:00 PM 42.8 °F 39.3 °F 42.8 °F 100% 29.81 in 4.0 mi East 5.8 mph - N/A Rain Light Rain
10:34 PM 44.6 °F - 42.8 °F 93% 29.80 in 4.0 mi Calm Calm - N/A   Overcast
10:58 PM 44.6 °F 39.2 °F 42.8 °F 93% 29.80 in 5.0 mi WNW 10.4 mph - N/A Rain Light Rain
10:59 PM 44.6 °F 39.2 °F 42.8 °F 93% 29.80 in 6.0 mi WNW 10.4 mph - N/A Rain Light Rain
11:00 PM 44.6 °F 38.8 °F 42.8 °F 93% 29.81 in 6.0 mi WNW 11.5 mph - N/A Rain Light Rain
11:26 PM 44.6 °F 42.2 °F 42.8 °F 93% 29.79 in 5.0 mi WNW 4.6 mph - N/A   Overcast
11:34 PM 44.6 °F 43.1 °F 42.8 °F 93% 29.79 in 5.0 mi WNW 3.5 mph - N/A   Overcast
11:39 PM 42.8 °F 39.3 °F 42.8 °F 100% 29.79 in 3.0 mi WNW 5.8 mph - N/A Rain Light Rain
11:40 PM 42.8 °F 39.3 °F 42.8 °F 100% 29.79 in 2.5 mi WNW 5.8 mph - N/A Rain Light Rain
11:45 PM 42.8 °F 38.6 °F 42.8 °F 100% 29.79 in 1.8 mi WNW 6.9 mph - N/A Rain Light Rain
11:46 PM 42.8 °F 38.0 °F 42.8 °F 100% 29.80 in 1.8 mi WNW 8.1 mph - N/A Rain Light Rain